Location: Владивосток
(43.1151°N, 131.8856°E)
Time: 22:43:34
(UTC+10:00)

EO-88 - Pass Details

Date: 03 July 2022
Orbit: 454 x 462 km, 97.3° (Epoch: 07 August)

Event Time Altitude Azimuth Distance (km) Brightness Sun altitude
Exits shadow 23:01:40 25° 204° (SSW) 987 ? -17.0°
Maximum altitude 23:03:19 43° 261° (W) 668 ? -17.2°
Drops below altitude 10° 23:06:40 10° 335° (NNW) 1,631 ? -17.5°
Sets 23:08:48 0° 342° (NNW) 2,511 ? -17.7°
